This is the latest recevied weather packets stored in our database for station/object K2CAT. If no packets are shown the sender has not sent any weather packets the latest 10 day(s).
| Time | Temp. | Humidity | Pressure | Rain* | Wind** | Luminosity | Snow |
|---|---|---|---|---|---|---|---|
| 1777374639 | 7.22° C | 86% | 1021.5 hPa | 0 mm | - | 20 W/m² | - |
| 1777374336 | 7.22° C | 88% | 1021.7 hPa | 0 mm | - | 20 W/m² | - |
| 1777374032 | 6.67° C | 90% | 1021.7 hPa | 0 mm | - | 22 W/m² | - |
| 1777373728 | 6.11° C | 92% | 1021.5 hPa | 0 mm | - | 26 W/m² | - |
| 1777373426 | 5.56° C | 93% | 1021.4 hPa | 0 mm | - | 21 W/m² | - |
| 1777373121 | 5.56° C | 93% | 1021.7 hPa | 0 mm | - | 20 W/m² | - |
| 1777372816 | 5.56° C | 93% | 1021.8 hPa | 0 mm | - | 16 W/m² | - |
| 1777372511 | 5.56° C | 93% | 1021.8 hPa | 0 mm | - | 15 W/m² | - |
| 1777372209 | 5.56° C | 93% | 1021.8 hPa | 0 mm | - | 14 W/m² | - |
| 1777371904 | 5° C | 93% | 1021.7 hPa | 0 mm | - | 12 W/m² | - |
| 1777371606 | 5° C | 93% | 1021.8 hPa | 0 mm | - | 10 W/m² | - |
| 1777371298 | 5.56° C | 93% | 1021.8 hPa | 0 mm | - | 8 W/m² | - |
| 1777370995 | 5.56° C | 93% | 1021.9 hPa | 0 mm | - | 6 W/m² | - |
| 1777370695 | 5° C | 93% | 1021.9 hPa | 0 mm | - | 4 W/m² | - |
| 1777370392 | 5.56° C | 93% | 1021.9 hPa | 0 mm | - | 3 W/m² | - |
| 1777370087 | 5.56° C | 93% | 1021.9 hPa | 0 mm | - | 2 W/m² | - |
| 1777369785 | 5.56° C | 93% | 1021.9 hPa | 0 mm | - | 1 W/m² | - |
| 1777369484 | 5.56° C | 92% | 1022.1 hPa | 0 mm | - | 0 W/m² | - |
| 1777369180 | 5.56° C | 92% | 1022 hPa | 0 mm | - | 0 W/m² | - |
| 1777368879 | 5.56° C | 92% | 1022 hPa | 0 mm | - | 0 W/m² | - |
| 1777368578 | 5.56° C | 92% | 1021.9 hPa | 0 mm | - | 0 W/m² | - |
| 1777368275 | 5.56° C | 92% | 1022.2 hPa | 0 mm | - | 0 W/m² | - |
| 1777367972 | 5.56° C | 92% | 1022 hPa | 0 mm | - | 0 W/m² | - |
| 1777367669 | 5.56° C | 92% | 1022 hPa | 0 mm | - | 0 W/m² | - |
| 1777367365 | 5.56° C | 92% | 1021.9 hPa | 0 mm | - | 0 W/m² | - |
* Rain latest hour (hover to see other rain measurements)
** Current wind speed in m/s (hover to see current wind gust speed)